This demonstration page uses our WeatherBlox Daily Observations layout. Learn more.

Left ArrowRight Arrow

40.92501, -98.34201

Hourly Observations for September 8, 2022

Temp ( °F °C ) Dew Point ( °F °C ) Humidity (%) Winds ( mph kmh ) Pressure ( in mb ) Visibility ( mi km ) Precip ( " mm )
12:53 am 00:53 Clear 71 21.7 61 16.1 70 70 S 12 19 30.01 1016 10 16 0.00 0.00
1:53 am 01:53 Clear 70 21.1 61 16.1 73 73 S 10 17 29.99 1016 10 16 0.00 0.00
2:53 am 02:53 Clear 69 20.6 61 16.1 75 75 S 12 19 29.98 1015 10 16 0.00 0.00
3:53 am 03:53 Clear 71 21.7 61 16.1 70 70 SSW 12 19 29.97 1015 10 16 0.00 0.00
4:53 am 04:53 Clear 70 21.1 61 16.1 73 73 SSW 13 20 29.96 1015 10 16 0.00 0.00
5:53 am 05:53 Clear 69 20.6 60 15.6 73 73 S 13 20 29.95 1014 10 16 0.00 0.00
6:53 am 06:53 Clear 68 20 60 15.6 76 76 S 13 20 29.93 1014 10 16 0.00 0.00
7:53 am 07:53 Sunny 68 20 59 15 73 73 S 14 22 29.92 1013 10 16 0.00 0.00
8:53 am 08:53 Sunny 71 21.7 59 15 66 66 S 13 20 29.91 1013 10 16 0.00 0.00
9:53 am 09:53 Sunny 76 24.4 59 15 56 56 SSW 16 26 29.88 1012 10 16 0.00 0.00
10:53 am 10:53 Sunny 82 27.8 60 15.6 47 47 S 20 31 29.87 1011 10 16 0.00 0.00
11:53 am 11:53 Sunny 86 30 61 16.1 43 43 SSW 20 31 29.84 1010 10 16 0.00 0.00
12:53 pm 12:53 Sunny 89 31.7 61 16.1 39 39 S 20 31 29.81 1010 10 16 0.00 0.00
1:53 pm 13:53 Sunny 93 33.9 62 16.7 36 36 S 21 33 29.78 1008 10 16 0.00 0.00
2:53 pm 14:53 Sunny 93 33.9 61 16.1 35 35 S 21 33 29.75 1008 10 16 0.00 0.00
3:53 pm 15:53 Sunny 95 35 61 16.1 33 33 S 21 33 29.72 1006 10 16 0.00 0.00
4:53 pm 16:53 Sunny 95 35 60 15.6 32 32 S 21 33 29.69 1006 10 16 0.00 0.00
5:53 pm 17:53 Sunny 93 33.9 60 15.6 34 34 S 20 31 29.67 1005 10 16 0.00 0.00
6:53 pm 18:53 Sunny 90 32.2 58 14.4 34 34 S 18 30 29.68 1005 10 16 0.00 0.00
7:53 pm 19:53 Sunny 85 29.4 59 15 42 42 S 15 24 29.67 1005 10 16 0.00 0.00
8:53 pm 20:53 Clear 81 27.2 58 14.4 45 45 S 16 26 29.68 1005 10 16 0.00 0.00
9:53 pm 21:53 Clear 78 25.6 57 13.9 48 48 S 17 28 29.67 1005 10 16 0.00 0.00
10:53 pm 22:53 Clear 76 24.4 54 12.2 47 47 S 12 19 29.69 1005 10 16 0.00 0.00
11:53 pm 23:53 Clear 76 24.4 52 11.1 43 43 S 13 20 29.68 1005 10 16 0.00 0.00

Powered by AerisWeather